SCP
0 0 0 0 0 0 0 0 0 0 0 0 0 0 0 0 0 0 0 0 0 0 0 0 0 0 0 0 0 0 0 0 0 0 0 0 0 0 0 0 0 0 0
0 0 0 0 0 0 0 0 0 0 0 0 0 0 0 0 0 0 0 0 0 0 0 0 0 0 0 0 0 0 0 0 0 0 0 0 0 0 0 0 0 0 0
0 0 0 0 0 0 0 0 0 0 0 0 0 0 0 0 0 0 0 0 0 0 0 0 0 0 0 0 0 0 0 0 0 0 0 0 0 0 0 0 0 0 0
0 0 0 0 0 0 0 0 0 0 0 0 0 0 0 0 0 0 0 0 0 0 0 0 0 0 0 0 0 0 0 0 0 0 0 0 0 0 0 0 0 0 0
0 0 0 0 0 0 0 0 0 0 0 0 0 0 0 0 0 0 0 0 0 0 0 0 0 0 0 0 0 0 0 0 0 0 0 0 0 0 0 0 0 0 0
0 0 0 0 0 0 0 0 0 0 0 0 0 0 0 0 0 0 0 0 0 0 0 0 0 0 0 0 0 0 0 0 0 0 0 0 0 0 0 0 0 0 0
0 0 0 0 0 0 0 0 0 0 0 0 0 0 0 0 0 0 0 0 0 0 0 0 0 0 0 0 0 0 0 0 0 0 0 0 0 0 0 0 0 0 0
0 0 0 0 0 0 0 0 0 0 0 0 0 0 0 0 0 0 0 0 0 0 0 0 0 0 0 0 0 0 0 0 0 0 0 0 0 0 1 1 1 0 0
0 0 0 0 0 0 0 0 0 0 0 0 0 0 0 0 0 0 0 0 0 0 0 0 0 0 0 0 0 0 0 0 0 0 0 0 0 0 1 1 1 1 0
0 0 0 0 0 0 0 0 0 0 0 0 0 0 0 0 0 0 0 0 0 0 0 0 0 0 0 0 0 0 0 0 0 0 0 0 0 0 0 0 1 1 0
0 0 0 0 0 0 0 0 0 0 0 0 0 0 0 0 0 0 0 0 0 0 0 0 0 0 0 0 0 0 0 0 0 0 0 0 0 0 0 0 0 0 0
0 0 0 0 0 0 0 0 0 0 0 0 0 0 0 0 0 0 0 0 0 0 0 0 0 0 0 0 0 0 0 0 0 0 0 0 0 0 0 0 0 0 0
0 0 0 0 0 0 0 0 0 0 0 0 0 0 0 0 0 0 0 0 0 0 0 0 0 0 0 0 0 0 0 0 0 0 0 0 0 0 0 0 0 0 0
0 0 0 0 0 0 0 0 0 0 0 0 0 0 0 0 0 0 0 0 0 0 0 0 0 0 0 0 0 0 0 0 0 0 0 0 0 0 0 0 0 0 0
0 0 1 0 0 0 0 0 0 0 0 0 0 0 0 0 0 0 0 0 0 0 0 0 0 0 0 0 0 0 0 0 0 0 0 0 0 0 0 0 0 0 0
0 1 1 1 1 0 0 0 0 0 0 0 0 0 0 0 0 0 0 0 0 0 0 0 0 0 0 0 0 0 0 0 0 0 0 0 0 0 0 0 0 0 0
1 1 1 1 1 1 1 1 0 0 0 0 0 0 0 0 0 0 0 0 0 0 0 0 0 0 0 0 0 0 0 0 0 0 0 0 0 0 0 0 0 0 0
1 1 1 1 1 1 1 1 1 1 0 0 0 0 0 0 0 0 0 0 0 0 0 0 0 0 0 0 0 0 0 0 0 0 0 0 0 0 0 0 0 0 0
1 1 1 1 1 1 1 1 1 1 1 1 1 1 0 0 0 0 0 0 0 0 0 0 0 0 0 0 0 0 0 0 0 0 0 0 0 0 0 0 0 0 0
1 1 0 0 0 1 1 1 1 1 1 1 1 1 1 0 0 0 0 0 0 0 0 0 0 0 0 0 0 0 0 0 0 0 0 0 0 0 0 0 0 0 0
0 0 0 0 0 0 0 0 0 1 1 1 1 1 0 0 0 0 0 0 0 0 0 0 0 0 0 0 0 0 0 0 0 0 0 0 0 0 0 0 0 0 0
0 0 0 0 0 0 0 0 0 0 0 0 0 0 0 0 0 0 0 0 0 0 0 0 0 0 0 0 0 0 0 0 0 0 0 0 0 0 0 0 0 0 0
0 0 0 0 0 0 0 0 0 0 0 0 0 0 0 0 0 0 0 0 0 0 0 0 0 0 0 0 0 0 0 0 0 0 0 0 0 0 0 0 0 0 0
0 0 0 0 0 0 0 0 0 0 0 0 0 0 0 0 0 0 0 0 0 0 0 0 0 0 0 0 0 0 0 0 0 0 0 0 0 0 0 0 0 0 0
0 0 0 0 0 0 0 0 0 0 0 0 0 0 0 0 0 0 0 0 0 0 0 0 0 0 0 0 0 0 0 0 0 0 0 0 0 0 0 0 0 0 0
0 0 0 0 0 0 0 0 0 0 0 0 0 0 0 0 0 0 0 0 0 0 0 0 0 0 0 0 0 0 0 0 0 0 0 0 0 0 0 0 0 0 0
Wind_Speed
4 4 3 4 4 4 4 4 4 4 4 3 3 3 3 2 1 1 2 5 5 6 6 6 6 6 6 6 5 5 5 4 4 3 3 2 2 2 2 2 2 3 3
4 4 4 4 4 4 4 4 5 4 3 3 4 4 4 3 3 3 3 5 7 8 8 8 8 8 8 8 8 7 7 7 6 6 5 4 4 3 3 2 1 1 1
6 5 4 4 4 4 4 3 4 3 3 3 4 5 4 4 4 4 4 3 5 8 10 11 11 11 10 11 10 10 10 9 9 8 8 7 6 6 5 4 3 2 1
7 5 5 5 5 4 4 3 3 3 3 3 4 4 4 4 6 5 5 5 4 4 8 12 13 13 13 13 13 12 12 11 11 11 10 10 9 8 8 7 6 4 3
8 6 5 5 6 5 4 4 4 4 4 4 4 4 4 4 5 6 6 7 6 5 5 9 13 13 14 15 15 15 14 14 13 13 13 12 12 11 10 9 8 7 6
9 7 6 7 6 5 5 5 5 5 4 4 4 4 4 5 5 6 7 6 6 7 7 6 6 9 14 17 17 17 17 16 16 15 15 15 14 13 12 12 11 9 8
10 9 6 7 7 6 7 7 6 6 5 3 2 3 4 7 8 7 7 6 7 7 7 7 6 6 6 16 19 19 19 18 18 17 17 17 16 16 15 14 13 12 11
10 10 10 8 8 7 8 8 7 5 5 5 4 2 3 4 7 9 7 7 8 6 7 8 7 7 6 5 10 19 20 20 20 19 19 19 18 18 17 16 15 14 12
11 10 11 10 9 9 9 10 9 9 7 6 6 5 4 5 3 4 7 7 7 6 6 6 8 8 8 6 7 13 18 20 21 20 20 20 19 19 18 17 16 15 14
13 13 12 12 11 9 10 10 11 9 8 7 5 7 6 4 2 3 3 4 6 7 7 6 7 8 8 7 9 12 15 17 19 19 20 20 20 19 18 18 17 16 15
13 14 13 13 12 11 11 10 10 11 10 9 7 5 7 7 6 4 5 4 4 5 7 7 6 6 8 8 7 11 15 17 17 17 18 19 19 19 18 17 16 16 16
10 14 14 13 13 12 12 12 11 12 11 11 9 7 6 5 6 7 9 7 5 5 6 6 7 7 7 7 9 13 15 16 17 17 17 17 17 17 18 18 17 16 15
9 12 13 13 13 13 12 11 11 12 12 12 12 10 9 9 5 5 8 7 6 4 4 5 6 6 6 6 7 12 13 15 16 16 16 16 16 17 17 18 17 16 15
9 9 12 13 14 13 12 12 11 12 10 12 13 12 9 9 7 7 6 6 7 5 5 6 4 6 6 6 8 12 8 13 15 15 15 15 16 16 16 17 17 15 14
7 9 11 13 13 13 13 12 11 12 11 12 11 12 11 8 7 7 7 7 8 9 7 5 5 5 6 5 8 6 7 10 12 13 13 14 15 15 16 17 16 15 15
7 8 9 11 12 12 12 12 11 10 11 11 9 11 11 9 8 7 7 7 8 10 10 4 5 4 5 4 6 5 6 8 9 11 12 13 13 14 15 16 15 15 15
8 8 9 9 10 11 11 12 12 11 13 12 11 11 12 10 9 8 8 8 8 9 12 7 4 3 5 5 3 3 3 4 4 9 11 12 12 13 14 14 14 14 14
7 7 7 8 9 10 10 12 13 12 13 13 13 12 13 10 12 9 8 9 9 9 9 11 5 4 4 4 3 3 3 3 4 7 10 11 12 12 13 13 13 13 13
6 6 7 8 9 9 10 11 12 12 12 13 12 13 12 11 12 10 10 9 8 7 8 8 7 3 2 2 2 2 2 2 3 4 7 9 11 11 12 12 12 11 11
6 6 6 7 7 8 9 9 10 11 11 11 11 11 11 11 11 10 9 10 8 8 7 7 6 3 3 2 2 2 3 3 3 2 4 6 7 9 11 12 11 10 10
5 5 5 6 6 7 7 8 8 9 10 10 9 9 10 10 11 9 7 7 7 7 6 6 5 3 3 3 3 3 3 2 2 2 2 3 3 3 5 8 9 9 11
4 4 5 5 6 5 7 9 8 7 7 8 9 8 7 8 9 10 10 9 8 7 7 6 5 5 5 4 3 3 3 2 3 2 2 2 3 4 4 4 8 11 12
4 4 4 4 5 6 6 7 8 7 7 7 8 7 5 5 7 6 7 8 7 8 8 6 6 6 4 5 5 4 4 4 3 2 2 2 2 3 3 4 9 10 11
4 4 4 4 5 5 5 6 7 7 6 6 6 6 6 5 5 6 5 4 4 4 4 5 5 4 3 4 5 5 4 3 2 1 2 2 2 2 2 2 7 10 10
4 4 3 4 4 4 3 4 5 4 4 5 4 4 5 5 6 8 6 5 4 2 1 3 3 2 3 5 5 4 4 3 2 2 2 2 1 0 0 1 3 7 8
4 3 3 3 3 4 3 4 4 3 4 4 2 2 4 5 5 7 6 5 5 4 3 2 2 2 3 4 5 4 4 3 2 2 3 3 2 1 1 1 1 2 3
Wind_Direction
185 187 182 181 184 187 190 196 209 210 209 216 220 229 242 250 248 218 169 189 206 226 235 235 224 218 216 211 207 206 207 204 200 195 190 184 174 164 145 120 96 77 65
187 187 187 187 195 195 190 194 208 204 206 211 219 223 227 234 233 229 210 201 213 222 233 237 236 232 226 223 221 222 221 219 216 213 211 212 212 211 202 194 175 132 82
193 187 188 189 199 201 198 196 212 205 208 211 218 222 221 228 233 229 228 214 210 219 227 235 238 237 236 232 230 232 231 229 225 221 220 221 222 224 221 219 215 212 203
196 190 190 193 193 193 190 192 205 208 218 218 221 224 216 217 228 229 228 228 220 211 220 229 236 238 238 238 239 238 237 235 231 227 226 226 227 229 229 227 226 226 226
199 195 194 195 190 191 191 194 199 202 213 220 224 227 221 219 222 225 226 228 226 220 213 221 225 231 237 240 242 241 240 239 236 231 229 229 229 231 232 231 230 230 230
200 199 198 198 192 190 194 196 202 206 210 212 227 235 233 232 227 224 227 227 225 223 220 219 216 226 232 238 241 243 243 241 239 234 232 231 231 232 233 233 231 231 231
200 201 202 200 199 197 197 197 196 207 215 204 222 263 257 239 233 229 224 224 225 223 219 220 215 214 224 234 239 242 244 244 242 238 235 233 232 232 233 233 233 232 231
205 203 205 204 202 202 201 201 199 201 208 190 182 206 273 275 240 229 220 220 224 219 220 220 218 217 215 217 232 239 243 245 245 242 239 237 235 233 233 233 233 233 232
214 209 208 207 206 205 209 207 203 202 209 205 191 183 205 239 273 244 222 219 218 219 223 221 222 222 219 218 224 236 240 244 246 246 244 242 239 236 234 234 234 233 233
216 215 213 212 213 212 212 210 209 208 204 210 209 215 219 210 237 291 270 232 222 223 225 224 224 225 221 222 226 228 233 239 244 247 248 247 243 240 238 236 235 234 232
213 214 214 215 217 218 218 214 211 212 212 213 209 202 223 238 234 239 264 258 243 236 228 225 225 224 223 223 226 230 232 236 239 242 246 248 247 245 242 240 238 237 234
211 212 213 215 218 220 221 219 217 216 217 218 217 211 200 205 211 220 240 247 245 237 226 225 224 225 225 224 228 232 234 238 239 240 242 244 246 247 244 242 239 238 236
213 211 209 215 218 221 221 219 219 221 220 220 222 224 223 225 213 210 231 246 249 245 227 225 223 223 225 222 228 231 235 237 240 242 241 241 243 245 244 243 241 238 238
219 209 207 212 216 217 220 220 223 224 223 225 227 227 230 230 225 225 229 241 261 257 235 234 219 219 221 220 227 225 232 235 240 242 241 240 242 243 244 243 240 237 237
220 211 207 210 213 214 216 218 225 224 224 227 229 229 233 234 230 230 230 227 245 264 261 229 223 220 219 216 225 221 224 231 235 239 241 241 243 244 244 242 236 235 234
226 217 213 212 212 213 214 216 222 224 226 228 227 230 233 234 232 230 231 230 230 248 263 229 220 211 207 214 219 216 222 226 230 234 238 240 242 244 244 241 234 233 234
230 225 220 216 213 212 211 215 220 219 224 229 226 228 233 229 232 230 229 230 233 236 256 257 225 222 213 218 217 213 215 215 223 229 234 238 241 243 243 237 232 233 233
236 231 226 224 221 217 213 215 220 221 224 227 228 228 232 229 231 230 229 231 233 231 244 259 246 221 217 213 206 207 212 213 222 230 232 237 241 242 240 235 230 229 229
240 235 227 227 226 223 219 219 222 223 226 228 228 229 231 227 231 230 229 232 233 231 234 248 252 216 204 179 187 215 220 225 225 228 232 238 242 242 240 235 229 225 223
244 242 237 234 231 228 225 224 225 227 228 229 228 229 230 228 231 230 231 233 231 231 231 240 246 224 198 169 171 207 233 225 233 216 233 237 241 242 241 236 228 220 215
256 251 248 245 239 234 232 229 229 230 232 233 231 230 230 230 230 230 229 228 225 230 228 233 240 229 203 182 204 192 216 219 226 200 212 228 224 227 230 234 226 218 216
271 259 252 249 247 245 241 231 230 234 235 236 238 235 231 226 228 226 226 224 219 224 227 226 232 228 222 204 189 182 185 181 242 197 188 229 198 220 221 217 228 223 219
284 272 262 254 254 256 245 235 230 235 239 239 239 237 230 222 215 216 220 224 230 230 225 223 231 230 217 197 181 185 192 195 207 165 161 220 202 225 216 223 228 223 221
289 278 271 261 260 266 252 242 233 235 245 247 242 233 228 222 209 201 204 210 220 227 225 223 228 228 207 184 181 183 180 154 103 131 155 198 197 219 217 219 228 222 221
289 285 282 273 266 275 262 249 235 240 243 248 249 241 230 225 209 194 194 203 206 213 165 164 175 173 159 157 150 136 141 149 181 189 180 178 170 199 233 231 230 224 223
285 291 290 284 270 275 275 254 233 235 243 248 249 245 233 223 211 195 198 199 210 209 174 145 128 117 125 132 141 160 166 164 159 185 178 162 151 130 278 284 240 217 216